SCP
-0 -0 -0 0 0 -0 0 -0 -0 -0 -0 -0 -0 -0 -0 -0 -0 -0 -0 -0 -0 -0 0 -0 0 -0 -0 -0 -0 -0 -0 -0 -0 -0 -0 -0 -0 -0 -0 -0 -0 0 -0
-0 -0 -0 -0 -0 0 0 0 -0 -0 -0 -0 -0 -0 -0 -0 -0 -0 -0 -0 -0 -0 -0 -0 -0 -0 -0 -0 -0 -0 -0 -0 -0 -0 -0 0 -0 -0 -0 -0 -0 0 0
-0 -0 -0 -0 -0 0 0 0 0 -0 -0 -0 -0 -0 -0 -0 -0 -0 -0 -0 -0 -0 -0 -0 -0 -0 -0 -0 -0 -0 -0 -0 -0 -0 -0 -0 0 -0 -0 0 0 0 0
-0 -0 -0 -0 -0 -0 0 0 0 0 -0 -0 -0 -0 -0 -0 -0 -0 -0 -0 -0 -0 -0 -0 -0 0 0 0 -0 -0 -0 -0 -0 -0 -0 -0 0 0 0 0 0 0 0
-0 0 -0 -0 -0 -0 -0 0 0 0 0 0 0 0 0 0 0 0 0 0 0 0 0 0 0 0 -0 0 0 0 0 0 0 0 -0 0 0 0 0 0 0 0 0
-0 -0 -0 -0 -0 -0 -0 0 0 0 0 0 0 0 0 0 0 0 0 -0 -0 -0 0 -0 -0 0 -0 -0 0 0 0 -0 0 -0 -0 0 0 0 0 0 0 0 0
-0 0 0 -0 -0 0 0 0 0 0 0 0 0 0 0 0 0 0 0 0 0 0 0 0 0 0 0 0 0 0 0 0 0 0 0 0 0 0 0 0 0 0 0
0 0 0 0 0 0 0 0 0 0 0 0 0 0 0 0 0 0 0 0 0 0 0 0 0 0 0 0 0 0 0 0 0 0 0 0 0 0 0 0 0 0 0
0 0 0 0 0 0 0 0 0 0 0 0 0 0 0 0 0 0 0 0 0 0 0 0 0 0 0 0 0 0 0 0 0 0 0 0 0 0 0 0 0 0 0
0 0 0 0 0 0 0 0 0 0 0 0 0 0 0 0 -0 0 0 0 0 0 0 0 0 0 0 0 -0 0 0 0 0 0 0 0 0 0 0 0 0 0 0
0 0 0 0 0 0 0 0 0 0 0 0 0 0 0 0 0 0 0 0 0 0 0 0 0 0 0 0 0 0 0 0 0 0 0 0 0 0 0 0 0 0 0
0 0 0 0 0 0 0 0 0 0 0 0 0 0 0 0 0 0 0 0 0 0 0 0 0 0 0 0 0 0 0 0 0 0 0 0 0 0 0 0 0 0 0
0 0 0 0 0 0 0 0 0 0 0 0 0 0 0 0 0 0 0 0 0 0 0 0 0 0 0 0 0 0 0 0 0 0 0 0 0 0 0 0 0 0 0
0 0 0 0 0 0 0 0 0 0 0 0 0 0 0 0 0 0 0 0 0 0 0 0 0 0 0 0 0 0 0 0 0 0 0 0 0 0 0 0 0 0 0
0 0 0 0 0 0 0 0 0 0 0 0 0 0 0 0 0 0 0 0 0 0 0 0 0 0 0 0 0 0 0 0 0 0 0 0 0 0 0 0 0 0 0
0 0 0 0 0 0 0 0 0 0 0 0 0 0 0 0 0 0 0 0 0 0 0 0 0 0 0 0 0 0 0 0 0 0 0 0 0 0 0 0 0 0 0
0 0 0 0 0 0 0 0 0 0 0 0 0 0 0 0 0 0 0 0 0 0 0 0 0 0 0 0 0 0 0 0 0 0 0 0 0 0 0 0 0 0 0
0 0 0 0 0 0 0 0 0 0 0 0 0 0 0 0 0 0 0 0 0 0 0 0 0 0 0 0 0 0 0 0 0 0 0 0 0 0 0 0 0 0 0
0 0 0 0 0 0 0 0 0 0 0 0 0 0 0 0 0 0 0 0 0 0 0 0 0 0 0 0 0 0 0 0 0 0 0 0 0 0 0 0 0 0 0
0 0 0 0 0 0 0 0 0 0 0 0 0 0 0 0 0 0 0 0 0 0 0 0 0 0 0 0 0 0 0 0 0 0 0 0 0 0 0 0 0 0 0
0 0 0 0 0 0 0 0 0 0 0 0 0 0 0 0 0 0 0 0 0 0 0 0 0 0 0 0 0 0 0 0 0 0 0 0 0 0 0 0 0 0 0
0 0 0 0 0 0 0 0 0 0 0 0 0 0 0 0 0 0 0 0 0 0 0 0 0 0 0 0 0 0 0 0 0 0 0 0 0 0 0 0 0 0 0
0 0 0 0 0 0 0 0 0 0 0 0 0 0 0 0 0 0 0 0 0 0 0 0 0 0 0 0 0 0 0 0 0 0 0 0 0 0 0 0 0 0 0
0 0 0 0 0 0 0 0 0 0 0 0 0 0 0 0 0 0 0 0 0 0 0 0 0 0 0 0 0 0 0 0 0 0 0 0 0 0 0 0 0 0 0
0 0 0 0 0 0 0 0 0 0 0 0 0 0 0 0 0 0 0 0 0 0 0 0 0 0 0 0 0 0 0 0 0 0 0 0 0 0 0 0 0 0 0
0 0 0 0 0 0 0 0 0 0 0 0 0 0 0 0 0 0 0 0 0 0 0 0 0 0 0 0 0 0 0 0 0 0 0 0 0 0 0 0 0 0 0
Wind_Speed_500mb
35 30 33 36 37 30 26 33 31 22 21 22 20 22 25 26 26 26 27 27 28 29 29 29 30 30 29 28 28 27 26 25 23 22 20 22 24 26 22 19 18 18 18
44 35 39 37 41 30 21 27 28 19 15 18 20 22 24 25 26 27 27 27 28 28 28 28 28 28 28 27 27 26 25 24 23 22 24 25 27 25 24 21 19 18 17
46 40 40 39 36 26 20 22 23 22 22 23 23 23 23 24 25 25 25 25 25 26 26 27 28 27 26 25 25 25 24 23 22 24 24 28 24 23 25 22 20 19 19
47 40 37 37 32 25 23 25 27 27 27 25 24 23 23 23 23 23 23 23 24 26 27 27 27 27 27 26 26 25 25 23 21 23 24 25 22 27 27 24 24 25 25
45 40 41 40 36 30 27 28 28 27 25 23 23 22 23 22 22 22 22 22 24 25 26 27 27 28 27 27 27 27 26 25 19 21 25 21 21 30 29 28 28 30 30
42 42 45 41 38 30 26 26 26 25 25 23 22 22 20 20 20 21 22 24 26 27 27 27 27 28 28 28 28 28 27 23 19 24 23 23 26 33 29 31 32 32 32
39 44 45 40 35 29 25 24 25 25 24 23 22 20 19 20 21 22 23 24 24 25 25 26 27 27 27 27 27 27 26 24 24 23 26 26 31 33 32 27 24 24 25
35 45 44 40 35 24 24 22 22 22 22 21 20 20 21 22 22 23 24 24 25 25 25 26 26 26 26 28 29 26 24 24 19 20 19 25 33 31 28 24 22 22 23
34 45 45 44 39 29 23 21 22 22 21 20 20 21 22 21 23 25 24 25 25 26 25 25 25 24 23 23 25 24 21 18 16 17 18 22 27 25 22 19 21 22 23
37 41 41 44 38 30 25 21 21 20 20 20 21 20 18 22 19 27 23 21 20 17 18 19 20 19 20 20 18 17 14 13 13 14 15 20 17 25 23 20 20 21 20
38 41 42 45 39 30 22 19 18 17 17 20 21 21 19 16 16 18 15 16 14 15 15 16 16 16 17 14 15 13 9 12 13 13 13 9 9 10 13 15 19 17 12
48 42 35 38 35 25 23 21 19 17 16 15 16 14 11 12 10 5 8 11 12 11 11 13 9 12 12 13 14 14 10 11 10 13 13 13 9 7 13 20 17 8 12
52 50 42 31 29 24 28 24 21 18 19 18 15 13 10 4 3 3 6 7 10 6 3 5 6 14 14 13 14 9 5 7 8 8 10 14 9 15 17 15 9 7 12
66 54 42 38 31 32 26 19 24 26 23 13 11 10 8 4 3 4 2 5 8 3 5 12 13 17 13 13 12 8 7 5 1 8 11 9 10 12 15 3 8 15 23
57 59 53 47 40 36 23 30 30 25 19 14 10 9 7 6 5 9 5 1 3 3 12 12 10 9 11 11 10 9 5 3 6 8 15 19 19 17 14 21 21 19 27
55 63 57 54 45 38 38 33 31 25 20 16 13 11 10 9 9 6 1 2 3 9 11 6 9 8 7 5 4 4 9 12 14 18 20 23 22 18 20 25 27 27 26
54 61 61 53 48 47 40 38 32 23 20 20 16 15 7 6 6 4 5 3 6 4 6 6 7 8 7 3 3 2 9 15 19 20 22 24 25 25 25 25 25 29 31
53 55 59 52 48 48 46 39 34 32 24 19 18 14 4 4 12 7 3 3 5 5 2 5 7 9 10 6 6 11 13 15 17 20 21 18 20 25 30 35 35 35 37
58 59 60 53 53 47 43 41 36 29 23 23 16 17 11 9 8 5 4 6 4 2 7 10 13 14 13 10 3 11 14 17 18 25 24 22 29 28 30 29 32 34 36
65 65 64 61 57 48 46 41 35 30 28 17 25 19 11 8 7 5 7 3 2 7 10 12 15 18 18 13 2 10 10 11 15 18 18 27 30 34 36 38 39 38 36
64 66 65 63 57 52 49 42 38 34 26 33 27 19 11 9 12 10 4 2 6 9 11 14 15 14 13 11 10 19 12 4 7 17 18 24 27 36 38 40 40 43 46
62 61 59 55 52 50 47 45 43 35 37 30 25 17 15 16 11 6 1 5 8 11 13 14 17 18 16 11 7 18 16 7 7 17 23 27 35 37 42 38 37 44 45
57 59 55 53 53 50 48 48 46 45 39 31 24 20 20 14 6 3 1 5 8 12 14 16 18 18 16 14 10 4 2 6 16 21 26 27 38 42 42 39 41 39 43
53 51 57 60 58 55 54 53 54 47 40 33 25 23 18 12 5 2 5 7 11 13 15 15 16 16 14 11 11 12 8 10 9 13 16 42 42 42 40 40 30 32 41
50 50 54 62 61 60 58 55 54 44 35 33 32 24 16 10 4 1 5 9 11 13 15 15 14 12 14 14 14 12 12 14 17 23 44 53 50 44 41 30 33 31 43
49 52 55 55 56 57 55 53 40 33 38 38 30 22 15 9 6 1 4 8 10 12 13 13 13 14 15 16 17 16 16 17 21 28 44 55 57 54 43 36 34 39 49
Wind_Direction_500mb
155 155 143 140 140 142 125 148 152 146 115 114 106 97 96 94 92 88 84 80 78 74 68 64 62 61 60 59 59 59 57 55 55 56 54 52 48 36 28 22 14 11 9
153 155 147 141 147 149 134 139 152 155 129 116 109 103 99 95 91 85 79 74 70 67 65 63 62 60 59 57 56 55 53 51 52 49 43 40 38 28 20 16 12 10 8
161 156 154 157 159 158 150 144 145 143 132 122 116 108 101 94 88 82 78 73 69 64 60 58 57 57 58 57 56 53 51 52 56 51 46 29 21 19 15 14 14 13 9
159 154 156 160 159 150 143 138 138 136 131 126 118 109 99 91 85 78 72 68 64 63 60 56 53 51 50 50 50 48 47 46 47 48 37 24 20 13 6 5 9 7 3
158 155 152 152 148 138 136 138 137 134 128 119 111 102 94 88 82 76 71 67 66 66 61 56 53 51 49 47 45 44 44 47 54 42 31 17 22 12 5 7 18 12 13
156 154 149 148 146 142 133 135 134 131 125 117 107 100 96 89 79 71 66 60 57 55 54 52 51 49 47 44 43 42 41 42 46 40 24 19 21 10 8 14 11 12 11
163 158 153 152 152 143 133 132 134 133 128 117 109 101 92 82 77 74 68 63 59 57 54 52 49 46 44 42 40 39 42 54 49 33 22 23 15 7 10 15 11 6 1
162 165 159 159 156 149 135 129 132 129 125 121 114 106 95 88 79 70 64 61 59 57 55 54 52 51 51 49 45 48 50 50 35 29 29 5 1 359 9 8 5 4 2
169 168 163 162 163 153 140 134 135 133 130 124 114 106 99 87 76 67 62 62 59 55 54 52 48 49 49 45 46 51 48 33 27 30 6 357 353 5 8 15 34 39 28
174 182 167 164 166 159 147 143 141 134 125 114 107 103 99 81 70 74 63 59 55 52 55 55 53 49 29 32 30 39 24 7 9 6 349 353 16 56 75 60 48 29 19
176 177 169 168 172 166 157 150 146 137 125 116 105 92 86 85 73 60 53 54 53 50 46 51 37 26 11 23 6 14 10 16 2 355 354 21 53 65 23 10 8 14 346
174 171 173 178 172 176 170 161 155 146 131 130 107 98 108 114 94 66 63 46 31 34 23 15 20 354 16 27 57 54 41 19 9 3 11 345 330 328 337 8 355 346 308
168 169 170 164 160 162 162 169 158 141 120 124 120 127 122 96 99 21 84 34 342 357 23 77 19 348 16 11 29 70 67 61 40 24 326 320 343 359 40 65 12 18 304
175 181 189 167 180 169 171 182 146 152 146 149 146 145 148 180 274 282 208 308 316 336 347 353 355 6 20 54 54 61 80 120 109 280 305 334 340 330 359 327 295 5 339
187 176 168 171 175 182 187 172 166 160 156 161 165 172 184 212 249 288 259 238 32 10 333 340 356 56 65 62 62 30 10 313 284 287 309 323 337 339 335 324 331 340 332
179 172 171 179 183 178 170 174 172 174 180 189 199 191 197 225 250 238 182 176 332 329 330 36 85 70 52 49 11 19 319 302 293 297 304 312 320 324 320 323 328 332 349
188 181 179 184 182 180 183 182 183 181 192 201 198 198 221 282 182 203 183 319 321 41 72 38 24 19 14 28 258 299 274 287 298 303 315 324 327 330 326 329 328 330 337
172 170 171 176 182 189 189 193 195 200 204 205 195 193 233 276 196 194 269 321 111 100 46 342 342 348 351 2 195 234 267 277 290 308 314 325 335 336 336 336 338 340 340
173 173 175 183 186 193 193 196 197 200 203 204 203 198 180 200 209 251 267 150 123 344 336 337 341 344 356 8 190 212 249 279 301 319 327 341 346 350 348 342 338 338 336
177 177 185 185 191 194 196 194 197 197 208 214 176 177 178 197 236 208 165 154 327 333 335 338 341 347 357 16 95 181 204 276 305 306 320 339 344 352 353 343 335 332 331
185 186 194 193 198 197 195 196 199 196 207 177 173 172 175 186 173 170 186 324 331 330 340 341 345 352 358 40 122 151 169 253 291 302 313 328 341 343 344 343 331 329 329
188 188 191 194 196 198 202 206 199 186 177 176 177 171 168 166 169 178 274 332 338 346 348 343 347 354 5 24 124 183 173 172 350 294 303 321 339 340 339 342 334 321 321
188 191 190 193 193 200 202 199 191 180 174 177 179 170 166 164 178 212 291 352 348 349 348 353 358 359 11 19 31 55 216 234 284 255 283 306 326 335 338 336 328 314 320
189 189 196 197 203 205 204 199 195 183 178 171 168 169 170 173 178 324 349 2 354 350 355 354 360 2 10 16 27 30 19 329 318 299 283 312 330 335 339 334 324 315 313
187 190 194 196 195 202 196 189 180 173 172 167 166 173 174 177 175 230 358 357 353 350 348 355 358 5 4 11 27 27 5 348 330 313 311 320 324 336 341 331 323 313 307
182 187 189 189 187 183 187 182 176 174 173 168 168 175 174 181 190 89 347 341 349 350 347 349 356 5 10 7 8 5 360 349 331 323 315 321 324 330 337 331 314 307 304
Wind_Speed_850mb
35 30 33 36 37 30 26 33 31 22 21 22 20 22 25 26 26 26 27 27 28 29 29 29 30 30 29 28 28 27 26 25 23 22 20 22 24 26 22 19 18 18 18
44 35 39 37 41 30 21 27 28 19 15 18 20 22 24 25 26 27 27 27 28 28 28 28 28 28 28 27 27 26 25 24 23 22 24 25 27 25 24 21 19 18 17
46 40 40 39 36 26 20 22 23 22 22 23 23 23 23 24 25 25 25 25 25 26 26 27 28 27 26 25 25 25 24 23 22 24 24 28 24 23 25 22 20 19 19
47 40 37 37 32 25 23 25 27 27 27 25 24 23 23 23 23 23 23 23 24 26 27 27 27 27 27 26 26 25 25 23 21 23 24 25 22 27 27 24 24 25 25
45 40 41 40 36 30 27 28 28 27 25 23 23 22 23 22 22 22 22 22 24 25 26 27 27 28 27 27 27 27 26 25 19 21 25 21 21 30 29 28 28 30 30
42 42 45 41 38 30 26 26 26 25 25 23 22 22 20 20 20 21 22 24 26 27 27 27 27 28 28 28 28 28 27 23 19 24 23 23 26 33 29 31 32 32 32
39 44 45 40 35 29 25 24 25 25 24 23 22 20 19 20 21 22 23 24 24 25 25 26 27 27 27 27 27 27 26 24 24 23 26 26 31 33 32 27 24 24 25
35 45 44 40 35 24 24 22 22 22 22 21 20 20 21 22 22 23 24 24 25 25 25 26 26 26 26 28 29 26 24 24 19 20 19 25 33 31 28 24 22 22 23
34 45 45 44 39 29 23 21 22 22 21 20 20 21 22 21 23 25 24 25 25 26 25 25 25 24 23 23 25 24 21 18 16 17 18 22 27 25 22 19 21 22 23
37 41 41 44 38 30 25 21 21 20 20 20 21 20 18 22 19 27 23 21 20 17 18 19 20 19 20 20 18 17 14 13 13 14 15 20 17 25 23 20 20 21 20
38 41 42 45 39 30 22 19 18 17 17 20 21 21 19 16 16 18 15 16 14 15 15 16 16 16 17 14 15 13 9 12 13 13 13 9 9 10 13 15 19 17 12
48 42 35 38 35 25 23 21 19 17 16 15 16 14 11 12 10 5 8 11 12 11 11 13 9 12 12 13 14 14 10 11 10 13 13 13 9 7 13 20 17 8 12
52 50 42 31 29 24 28 24 21 18 19 18 15 13 10 4 3 3 6 7 10 6 3 5 6 14 14 13 14 9 5 7 8 8 10 14 9 15 17 15 9 7 12
66 54 42 38 31 32 26 19 24 26 23 13 11 10 8 4 3 4 2 5 8 3 5 12 13 17 13 13 12 8 7 5 1 8 11 9 10 12 15 3 8 15 23
57 59 53 47 40 36 23 30 30 25 19 14 10 9 7 6 5 9 5 1 3 3 12 12 10 9 11 11 10 9 5 3 6 8 15 19 19 17 14 21 21 19 27
55 63 57 54 45 38 38 33 31 25 20 16 13 11 10 9 9 6 1 2 3 9 11 6 9 8 7 5 4 4 9 12 14 18 20 23 22 18 20 25 27 27 26
54 61 61 53 48 47 40 38 32 23 20 20 16 15 7 6 6 4 5 3 6 4 6 6 7 8 7 3 3 2 9 15 19 20 22 24 25 25 25 25 25 29 31
53 55 59 52 48 48 46 39 34 32 24 19 18 14 4 4 12 7 3 3 5 5 2 5 7 9 10 6 6 11 13 15 17 20 21 18 20 25 30 35 35 35 37
58 59 60 53 53 47 43 41 36 29 23 23 16 17 11 9 8 5 4 6 4 2 7 10 13 14 13 10 3 11 14 17 18 25 24 22 29 28 30 29 32 34 36
65 65 64 61 57 48 46 41 35 30 28 17 25 19 11 8 7 5 7 3 2 7 10 12 15 18 18 13 2 10 10 11 15 18 18 27 30 34 36 38 39 38 36
64 66 65 63 57 52 49 42 38 34 26 33 27 19 11 9 12 10 4 2 6 9 11 14 15 14 13 11 10 19 12 4 7 17 18 24 27 36 38 40 40 43 46
62 61 59 55 52 50 47 45 43 35 37 30 25 17 15 16 11 6 1 5 8 11 13 14 17 18 16 11 7 18 16 7 7 17 23 27 35 37 42 38 37 44 45
57 59 55 53 53 50 48 48 46 45 39 31 24 20 20 14 6 3 1 5 8 12 14 16 18 18 16 14 10 4 2 6 16 21 26 27 38 42 42 39 41 39 43
53 51 57 60 58 55 54 53 54 47 40 33 25 23 18 12 5 2 5 7 11 13 15 15 16 16 14 11 11 12 8 10 9 13 16 42 42 42 40 40 30 32 41
50 50 54 62 61 60 58 55 54 44 35 33 32 24 16 10 4 1 5 9 11 13 15 15 14 12 14 14 14 12 12 14 17 23 44 53 50 44 41 30 33 31 43
49 52 55 55 56 57 55 53 40 33 38 38 30 22 15 9 6 1 4 8 10 12 13 13 13 14 15 16 17 16 16 17 21 28 44 55 57 54 43 36 34 39 49
Wind_Direction_850mb
155 155 143 140 140 142 125 148 152 146 115 114 106 97 96 94 92 88 84 80 78 74 68 64 62 61 60 59 59 59 57 55 55 56 54 52 48 36 28 22 14 11 9
153 155 147 141 147 149 134 139 152 155 129 116 109 103 99 95 91 85 79 74 70 67 65 63 62 60 59 57 56 55 53 51 52 49 43 40 38 28 20 16 12 10 8
161 156 154 157 159 158 150 144 145 143 132 122 116 108 101 94 88 82 78 73 69 64 60 58 57 57 58 57 56 53 51 52 56 51 46 29 21 19 15 14 14 13 9
159 154 156 160 159 150 143 138 138 136 131 126 118 109 99 91 85 78 72 68 64 63 60 56 53 51 50 50 50 48 47 46 47 48 37 24 20 13 6 5 9 7 3
158 155 152 152 148 138 136 138 137 134 128 119 111 102 94 88 82 76 71 67 66 66 61 56 53 51 49 47 45 44 44 47 54 42 31 17 22 12 5 7 18 12 13
156 154 149 148 146 142 133 135 134 131 125 117 107 100 96 89 79 71 66 60 57 55 54 52 51 49 47 44 43 42 41 42 46 40 24 19 21 10 8 14 11 12 11
163 158 153 152 152 143 133 132 134 133 128 117 109 101 92 82 77 74 68 63 59 57 54 52 49 46 44 42 40 39 42 54 49 33 22 23 15 7 10 15 11 6 1
162 165 159 159 156 149 135 129 132 129 125 121 114 106 95 88 79 70 64 61 59 57 55 54 52 51 51 49 45 48 50 50 35 29 29 5 1 359 9 8 5 4 2
169 168 163 162 163 153 140 134 135 133 130 124 114 106 99 87 76 67 62 62 59 55 54 52 48 49 49 45 46 51 48 33 27 30 6 357 353 5 8 15 34 39 28
174 182 167 164 166 159 147 143 141 134 125 114 107 103 99 81 70 74 63 59 55 52 55 55 53 49 29 32 30 39 24 7 9 6 349 353 16 56 75 60 48 29 19
176 177 169 168 172 166 157 150 146 137 125 116 105 92 86 85 73 60 53 54 53 50 46 51 37 26 11 23 6 14 10 16 2 355 354 21 53 65 23 10 8 14 346
174 171 173 178 172 176 170 161 155 146 131 130 107 98 108 114 94 66 63 46 31 34 23 15 20 354 16 27 57 54 41 19 9 3 11 345 330 328 337 8 355 346 308
168 169 170 164 160 162 162 169 158 141 120 124 120 127 122 96 99 21 84 34 342 357 23 77 19 348 16 11 29 70 67 61 40 24 326 320 343 359 40 65 12 18 304
175 181 189 167 180 169 171 182 146 152 146 149 146 145 148 180 274 282 208 308 316 336 347 353 355 6 20 54 54 61 80 120 109 280 305 334 340 330 359 327 295 5 339
187 176 168 171 175 182 187 172 166 160 156 161 165 172 184 212 249 288 259 238 32 10 333 340 356 56 65 62 62 30 10 313 284 287 309 323 337 339 335 324 331 340 332
179 172 171 179 183 178 170 174 172 174 180 189 199 191 197 225 250 238 182 176 332 329 330 36 85 70 52 49 11 19 319 302 293 297 304 312 320 324 320 323 328 332 349
188 181 179 184 182 180 183 182 183 181 192 201 198 198 221 282 182 203 183 319 321 41 72 38 24 19 14 28 258 299 274 287 298 303 315 324 327 330 326 329 328 330 337
172 170 171 176 182 189 189 193 195 200 204 205 195 193 233 276 196 194 269 321 111 100 46 342 342 348 351 2 195 234 267 277 290 308 314 325 335 336 336 336 338 340 340
173 173 175 183 186 193 193 196 197 200 203 204 203 198 180 200 209 251 267 150 123 344 336 337 341 344 356 8 190 212 249 279 301 319 327 341 346 350 348 342 338 338 336
177 177 185 185 191 194 196 194 197 197 208 214 176 177 178 197 236 208 165 154 327 333 335 338 341 347 357 16 95 181 204 276 305 306 320 339 344 352 353 343 335 332 331
185 186 194 193 198 197 195 196 199 196 207 177 173 172 175 186 173 170 186 324 331 330 340 341 345 352 358 40 122 151 169 253 291 302 313 328 341 343 344 343 331 329 329
188 188 191 194 196 198 202 206 199 186 177 176 177 171 168 166 169 178 274 332 338 346 348 343 347 354 5 24 124 183 173 172 350 294 303 321 339 340 339 342 334 321 321
188 191 190 193 193 200 202 199 191 180 174 177 179 170 166 164 178 212 291 352 348 349 348 353 358 359 11 19 31 55 216 234 284 255 283 306 326 335 338 336 328 314 320
189 189 196 197 203 205 204 199 195 183 178 171 168 169 170 173 178 324 349 2 354 350 355 354 360 2 10 16 27 30 19 329 318 299 283 312 330 335 339 334 324 315 313
187 190 194 196 195 202 196 189 180 173 172 167 166 173 174 177 175 230 358 357 353 350 348 355 358 5 4 11 27 27 5 348 330 313 311 320 324 336 341 331 323 313 307
182 187 189 189 187 183 187 182 176 174 173 168 168 175 174 181 190 89 347 341 349 350 347 349 356 5 10 7 8 5 360 349 331 323 315 321 324 330 337 331 314 307 304